Location: Bazugues
(43.4465°N, 0.3432°E)
Time: 16:14:22
(UTC+00:00)

Cosmos 1302 Rocket - Pass Details

Date: 12 January 2026
Orbit: 752 x 772 km, 74.0° (Epoch: 18 February)

Event Time Altitude Azimuth Distance (km) Brightness Sun altitude
Rises 18:54:46 0° 190° (S) 3,213 7.5 -23.1°
Reaches altitude 10° 18:57:08 10° 187° (S) 2,294 6.6 -23.5°
Enters shadow 19:02:05 64° 120° (ESE) 850 3.9 -24.4°
